Time,TemperatureF,DewpointF,PressureIn,WindDirection,WindDirectionDegrees,WindSpeedMPH,WindSpeedGustMPH,Humidity,HourlyPrecipIn,Conditions,Clouds,dailyrainin,SoftwareType,DateUTC
2013-03-17 00:04:00,19.6,-2.5,29.96,NW,304,3.1,4.9,37,0.00,,CLR,0.00,VWS V14.01,2013-03-17 05:04:00,
2013-03-17 00:09:00,19.6,-2.5,29.96,NW,307,3.6,4.0,37,0.00,,CLR,0.00,VWS V14.01,2013-03-17 05:09:00,
2013-03-17 00:14:00,19.6,-2.5,29.96,NW,310,4.0,4.0,37,0.00,,CLR,0.00,VWS V14.01,2013-03-17 05:14:00,
2013-03-17 00:19:00,19.4,-2.0,29.96,NW,325,4.0,4.9,38,0.00,,CLR,0.00,VWS V14.01,2013-03-17 05:19:00,
2013-03-17 00:25:00,19.2,-2.2,29.96,NW,315,4.0,4.0,38,0.00,,CLR,0.00,VWS V14.01,2013-03-17 05:25:00,
2013-03-17 00:30:00,19.0,-2.4,29.96,NW,306,4.0,4.0,38,0.00,,CLR,0.00,VWS V14.01,2013-03-17 05:30:00,
2013-03-17 00:37:00,18.9,-2.5,29.96,NW,307,3.1,5.8,38,0.00,,CLR,0.00,VWS V14.01,2013-03-17 05:37:00,
2013-03-17 00:42:00,18.7,-2.7,29.96,NW,311,4.9,4.9,38,0.00,,CLR,0.00,VWS V14.01,2013-03-17 05:42:00,
2013-03-17 00:47:00,18.7,-2.7,29.96,NW,317,4.0,5.8,38,0.00,,CLR,0.00,VWS V14.01,2013-03-17 05:47:00,
2013-03-17 00:53:00,18.7,-2.7,29.96,WNW,302,4.0,4.0,38,0.00,,CLR,0.00,VWS V14.01,2013-03-17 05:53:00,
2013-03-17 00:58:00,18.5,-2.9,29.96,WNW,303,4.0,4.0,38,0.00,,CLR,0.00,VWS V14.01,2013-03-17 05:58:00,
2013-03-17 01:04:00,18.3,-3.0,29.96,NW,307,3.6,4.0,38,0.00,,CLR,0.00,VWS V14.01,2013-03-17 06:04:00,
2013-03-17 01:09:00,18.3,-3.0,29.96,WNW,303,3.6,5.4,38,0.00,,CLR,0.00,VWS V14.01,2013-03-17 06:09:00,
2013-03-17 01:15:00,18.1,-3.2,29.96,NW,306,4.0,4.0,38,0.00,,CLR,0.00,VWS V14.01,2013-03-17 06:15:00,
2013-03-17 01:21:00,18.0,-2.8,29.96,NW,311,3.6,6.3,39,0.00,,CLR,0.00,VWS V14.01,2013-03-17 06:21:00,
2013-03-17 01:26:00,18.0,-2.8,29.96,NW,317,4.0,5.8,39,0.00,,CLR,0.00,VWS V14.01,2013-03-17 06:26:00,
2013-03-17 01:31:00,18.1,-2.6,29.96,NW,324,4.0,5.8,39,0.00,,CLR,0.00,VWS V14.01,2013-03-17 06:31:00,
2013-03-17 01:36:00,18.3,-2.5,29.96,NW,306,5.8,5.8,39,0.00,,CLR,0.00,VWS V14.01,2013-03-17 06:36:00,
2013-03-17 01:41:00,18.3,-3.0,29.96,NW,312,4.0,8.3,38,0.00,,CLR,0.00,VWS V14.01,2013-03-17 06:41:00,
2013-03-17 01:46:00,18.3,-3.0,29.99,NW,322,5.8,5.8,38,0.00,,CLR,0.00,VWS V14.01,2013-03-17 06:46:00,
2013-03-17 01:52:00,18.3,-3.0,29.99,NW,317,2.7,5.4,38,0.00,,CLR,0.00,VWS V14.01,2013-03-17 06:52:00,
2013-03-17 01:57:00,18.1,-3.2,29.99,NNW,327,5.4,7.6,38,0.00,,CLR,0.00,VWS V14.01,2013-03-17 06:57:00,
2013-03-17 02:03:00,18.0,-3.9,29.99,NW,324,5.4,5.8,37,0.00,,CLR,0.00,VWS V14.01,2013-03-17 07:03:00,
2013-03-17 02:08:00,17.8,-3.5,29.99,North,357,4.0,6.3,38,0.00,,CLR,0.00,VWS V14.01,2013-03-17 07:08:00,
2013-03-17 02:13:00,17.8,-3.5,29.99,NW,313,5.4,5.8,38,0.00,,CLR,0.00,VWS V14.01,2013-03-17 07:13:00,
2013-03-17 02:18:00,17.6,-3.7,29.99,NNW,336,5.4,8.3,38,0.00,,CLR,0.00,VWS V14.01,2013-03-17 07:18:00,
2013-03-17 02:23:00,17.6,-3.7,29.99,NW,316,5.4,6.3,38,0.00,,CLR,0.00,VWS V14.01,2013-03-17 07:23:00,
2013-03-17 02:29:00,17.4,-3.8,29.99,NNW,338,5.4,6.3,38,0.00,,CLR,0.00,VWS V14.01,2013-03-17 07:29:00,
2013-03-17 02:35:00,17.2,-4.0,29.99,NNW,345,8.1,8.1,38,0.00,,CLR,0.00,VWS V14.01,2013-03-17 07:35:00,
2013-03-17 02:41:00,17.1,-4.2,29.99,NNW,336,8.3,8.3,38,0.00,,CLR,0.00,VWS V14.01,2013-03-17 07:41:00,
2013-03-17 02:46:00,16.9,-4.3,29.99,North,353,8.7,8.7,38,0.00,,CLR,0.00,VWS V14.01,2013-03-17 07:46:00,
2013-03-17 02:52:00,16.9,-4.3,29.99,North,353,5.8,10.1,38,0.00,,CLR,0.00,VWS V14.01,2013-03-17 07:52:00,
2013-03-17 02:58:00,16.9,-4.9,29.99,North,357,8.1,8.7,37,0.00,,CLR,0.00,VWS V14.01,2013-03-17 07:58:00,
2013-03-17 03:03:00,16.7,-5.0,29.99,North,353,8.3,8.3,37,0.00,,CLR,0.00,VWS V14.01,2013-03-17 08:03:00,
2013-03-17 03:09:00,16.7,-5.0,29.99,North,349,7.6,10.1,37,0.00,,CLR,0.00,VWS V14.01,2013-03-17 08:09:00,
2013-03-17 03:14:00,16.7,-5.0,29.99,North,353,8.1,8.7,37,0.00,,CLR,0.00,VWS V14.01,2013-03-17 08:14:00,
2013-03-17 03:19:00,16.5,-5.2,29.99,North,353,8.1,8.1,37,0.00,,CLR,0.00,VWS V14.01,2013-03-17 08:19:00,
2013-03-17 03:24:00,16.2,-5.5,29.99,NNW,341,10.1,10.1,37,0.00,,CLR,0.00,VWS V14.01,2013-03-17 08:24:00,
2013-03-17 03:30:00,16.0,-5.7,29.99,North,5,7.2,10.1,37,0.00,,CLR,0.00,VWS V14.01,2013-03-17 08:30:00,
2013-03-17 03:35:00,16.0,-5.7,29.99,North,357,6.3,8.3,37,0.00,,CLR,0.00,VWS V14.01,2013-03-17 08:35:00,
2013-03-17 03:41:00,15.8,-5.8,29.99,North,0,5.8,8.1,37,0.00,,CLR,0.00,VWS V14.01,2013-03-17 08:41:00,
2013-03-17 03:47:00,15.4,-6.2,29.99,North,7,8.1,9.6,37,0.00,,CLR,0.00,VWS V14.01,2013-03-17 08:47:00,
2013-03-17 03:53:00,15.3,-6.3,29.99,NNE,14,8.7,8.7,37,0.00,,CLR,0.00,VWS V14.01,2013-03-17 08:53:00,
2013-03-17 03:58:00,15.1,-6.5,29.99,North,4,5.8,5.8,37,0.00,,CLR,0.00,VWS V14.01,2013-03-17 08:58:00,
2013-03-17 04:03:00,15.1,-6.5,29.99,North,357,6.3,7.6,37,0.00,,CLR,0.00,VWS V14.01,2013-03-17 09:03:00,
2013-03-17 04:09:00,15.1,-6.5,29.99,North,357,8.1,8.1,37,0.00,,CLR,0.00,VWS V14.01,2013-03-17 09:09:00,
2013-03-17 04:14:00,14.9,-6.7,29.99,North,357,6.7,8.3,37,0.00,,CLR,0.00,VWS V14.01,2013-03-17 09:14:00,
2013-03-17 04:20:00,14.7,-6.8,29.99,North,7,8.1,8.1,37,0.00,,CLR,0.00,VWS V14.01,2013-03-17 09:20:00,
2013-03-17 04:27:00,14.5,-7.0,29.99,NNE,13,5.8,8.7,37,0.00,,CLR,0.00,VWS V14.01,2013-03-17 09:27:00,
2013-03-17 04:33:00,14.5,-7.0,29.99,NNE,28,7.2,8.1,37,0.00,,CLR,0.00,VWS V14.01,2013-03-17 09:33:00,
2013-03-17 04:39:00,14.4,-7.1,29.99,North,10,8.3,8.3,37,0.00,,CLR,0.00,VWS V14.01,2013-03-17 09:39:00,
2013-03-17 04:44:00,14.4,-7.1,30.02,North,8,8.1,10.1,37,0.00,,CLR,0.00,VWS V14.01,2013-03-17 09:44:00,
2013-03-17 04:50:00,14.2,-7.3,30.02,North,7,5.8,8.3,37,0.00,,CLR,0.00,VWS V14.01,2013-03-17 09:50:00,
2013-03-17 04:55:00,14.2,-7.3,30.02,NNE,12,5.4,7.2,37,0.00,,CLR,0.00,VWS V14.01,2013-03-17 09:55:00,
2013-03-17 05:00:00,14.0,-7.5,30.02,North,357,7.6,8.3,37,0.00,,CLR,0.00,VWS V14.01,2013-03-17 10:00:00,
2013-03-17 05:05:00,13.8,-7.6,30.02,NNE,30,8.3,8.3,37,0.00,,CLR,0.00,VWS V14.01,2013-03-17 10:05:00,
2013-03-17 05:10:00,13.6,-7.8,30.02,NNE,19,5.8,7.6,37,0.00,,CLR,0.00,VWS V14.01,2013-03-17 10:10:00,
2013-03-17 05:15:00,13.5,-7.9,30.02,North,7,5.4,8.7,37,0.00,,CLR,0.00,VWS V14.01,2013-03-17 10:15:00,
2013-03-17 05:20:00,13.5,-7.9,30.02,NNE,12,5.4,7.6,37,0.00,,CLR,0.00,VWS V14.01,2013-03-17 10:20:00,
2013-03-17 05:27:00,13.1,-8.3,30.02,NNE,12,5.8,8.1,37,0.00,,CLR,0.00,VWS V14.01,2013-03-17 10:27:00,
2013-03-17 05:33:00,12.9,-8.4,30.02,North,2,5.8,6.7,37,0.00,,CLR,0.00,VWS V14.01,2013-03-17 10:33:00,
2013-03-17 05:38:00,12.7,-8.6,30.02,North,8,6.3,8.1,37,0.00,,CLR,0.00,VWS V14.01,2013-03-17 10:38:00,
2013-03-17 05:43:00,12.6,-8.8,30.02,North,7,5.8,8.1,37,0.00,,CLR,0.00,VWS V14.01,2013-03-17 10:43:00,
2013-03-17 05:48:00,12.6,-8.8,30.02,NNE,20,6.3,8.1,37,0.00,,CLR,0.00,VWS V14.01,2013-03-17 10:48:00,
2013-03-17 05:54:00,12.2,-9.1,30.02,North,8,7.6,7.6,37,0.00,,CLR,0.00,VWS V14.01,2013-03-17 10:54:00,
2013-03-17 05:59:00,12.2,-9.1,30.02,NNE,19,5.8,7.6,37,0.00,,CLR,0.00,VWS V14.01,2013-03-17 10:59:00,
2013-03-17 06:04:00,12.2,-9.1,30.02,North,1,6.3,6.3,37,0.00,,CLR,0.00,VWS V14.01,2013-03-17 11:04:00,
2013-03-17 06:10:00,12.0,-9.2,30.02,NNE,20,5.4,8.7,37,0.00,,CLR,0.00,VWS V14.01,2013-03-17 11:10:00,
2013-03-17 06:15:00,12.0,-9.2,30.02,NNE,12,5.4,6.3,37,0.00,,CLR,0.00,VWS V14.01,2013-03-17 11:15:00,
2013-03-17 06:22:00,11.8,-9.4,30.02,NNE,12,5.4,6.3,37,0.00,,CLR,0.00,VWS V14.01,2013-03-17 11:22:00,
2013-03-17 06:28:00,11.7,-9.6,30.02,NNE,12,6.3,6.3,37,0.00,,CLR,0.00,VWS V14.01,2013-03-17 11:28:00,
2013-03-17 06:33:00,11.7,-9.6,30.02,North,5,2.7,4.0,37,0.00,,CLR,0.00,VWS V14.01,2013-03-17 11:33:00,
2013-03-17 06:39:00,11.3,-9.9,30.02,NNE,15,4.0,5.4,37,0.00,,CLR,0.00,VWS V14.01,2013-03-17 11:39:00,
2013-03-17 06:45:00,11.1,-10.1,30.02,NNE,12,0.0,0.0,37,0.00,,CLR,0.00,VWS V14.01,2013-03-17 11:45:00,
2013-03-17 06:50:00,11.1,-10.1,30.02,NNE,19,0.0,0.0,37,0.00,,CLR,0.00,VWS V14.01,2013-03-17 11:50:00,
2013-03-17 06:55:00,10.9,-10.2,30.02,NNE,19,0.0,0.0,37,0.00,,CLR,0.00,VWS V14.01,2013-03-17 11:55:00,
2013-03-17 07:00:00,10.9,-10.2,30.02,NNE,21,2.7,4.0,37,0.00,,CLR,0.00,VWS V14.01,2013-03-17 12:00:00,
2013-03-17 07:07:00,10.9,-10.2,30.02,NE,35,0.0,3.1,37,0.00,,CLR,0.00,VWS V14.01,2013-03-17 12:07:00,
2013-03-17 07:13:00,10.9,-10.2,30.05,NE,35,0.0,3.1,37,0.00,,CLR,0.00,VWS V14.01,2013-03-17 12:13:00,
2013-03-17 07:18:00,11.1,-10.1,30.05,NNE,21,0.0,2.7,37,0.00,,CLR,0.00,VWS V14.01,2013-03-17 12:18:00,
2013-03-17 07:24:00,10.9,-10.2,30.05,NE,55,0.0,0.0,37,0.00,,CLR,0.00,VWS V14.01,2013-03-17 12:24:00,
2013-03-17 07:29:00,10.9,-10.2,30.05,NNE,23,3.1,4.0,37,0.00,,CLR,0.00,VWS V14.01,2013-03-17 12:29:00,
2013-03-17 07:37:00,10.9,-10.2,30.05,NNE,29,0.0,0.0,37,0.00,,CLR,0.00,VWS V14.01,2013-03-17 12:37:00,
2013-03-17 07:43:00,10.9,-10.2,30.05,NE,35,0.0,0.0,37,0.00,,CLR,0.00,VWS V14.01,2013-03-17 12:43:00,
2013-03-17 07:48:00,11.1,-10.1,30.05,NNE,33,2.7,4.9,37,0.00,,CLR,0.00,VWS V14.01,2013-03-17 12:48:00,
2013-03-17 07:53:00,11.3,-9.9,30.05,NNE,32,3.6,3.6,37,0.00,,CLR,0.00,VWS V14.01,2013-03-17 12:53:00,
2013-03-17 07:58:00,11.3,-9.9,30.05,NE,52,4.0,4.0,37,0.00,,CLR,0.00,VWS V14.01,2013-03-17 12:58:00,
2013-03-17 09:25:00,15.4,-7.3,30.11,NE,50,4.9,4.9,35,0.00,,,0.00,VWS V14.01,2013-03-17 14:25:00,
2013-03-17 09:31:00,15.3,-7.5,30.14,NE,36,2.7,4.9,35,0.00,,,0.00,VWS V14.01,2013-03-17 14:31:00,
2013-03-17 09:36:00,15.4,-7.3,30.14,ENE,57,5.8,5.8,35,0.00,,,0.00,VWS V14.01,2013-03-17 14:36:00,
2013-03-17 09:41:00,15.6,-7.8,30.14,NE,50,4.0,5.8,34,0.00,,,0.00,VWS V14.01,2013-03-17 14:41:00,
2013-03-17 09:47:00,16.0,-7.4,30.11,NE,34,7.6,8.3,34,0.00,,,0.00,VWS V14.01,2013-03-17 14:47:00,
2013-03-17 09:52:00,16.0,-7.4,30.11,ENE,72,3.1,5.4,34,0.00,,,0.00,VWS V14.01,2013-03-17 14:52:00,
2013-03-17 09:58:00,16.2,-7.3,30.14,NE,49,4.0,5.8,34,0.00,,,0.00,VWS V14.01,2013-03-17 14:58:00,
2013-03-17 10:04:00,16.5,-6.9,30.14,ENE,72,3.1,3.6,34,0.00,,CLR,0.00,VWS V14.01,2013-03-17 15:04:00,
2013-03-17 10:10:00,16.9,-6.6,30.14,NE,34,4.0,4.0,34,0.00,,CLR,0.00,VWS V14.01,2013-03-17 15:10:00,
2013-03-17 10:15:00,17.1,-6.5,30.14,NNE,28,4.0,4.0,34,0.00,,CLR,0.00,VWS V14.01,2013-03-17 15:15:00,
2013-03-17 10:20:00,17.4,-6.1,30.14,NE,54,6.3,6.3,34,0.00,,CLR,0.00,VWS V14.01,2013-03-17 15:20:00,
2013-03-17 10:25:00,17.6,-6.0,30.14,NE,49,2.2,5.4,34,0.00,,CLR,0.00,VWS V14.01,2013-03-17 15:25:00,
2013-03-17 10:31:00,18.1,-6.1,30.14,ENE,65,3.1,6.3,33,0.00,,CLR,0.00,VWS V14.01,2013-03-17 15:31:00,
2013-03-17 10:36:00,18.5,-5.8,30.14,NNE,24,4.0,8.7,33,0.00,,CLR,0.00,VWS V14.01,2013-03-17 15:36:00,
2013-03-17 10:42:00,18.5,-5.8,30.14,NE,39,2.2,5.4,33,0.00,,CLR,0.00,VWS V14.01,2013-03-17 15:42:00,
2013-03-17 10:47:00,18.9,-4.9,30.14,NNE,27,5.8,8.7,34,0.00,,CLR,0.00,VWS V14.01,2013-03-17 15:47:00,
2013-03-17 10:53:00,19.6,-5.5,30.14,NE,35,4.0,6.3,32,0.05,,CLR,0.05,VWS V14.01,2013-03-17 15:53:00,
2013-03-17 10:58:00,19.2,-5.2,30.14,NNE,15,6.3,6.3,33,0.05,,CLR,0.05,VWS V14.01,2013-03-17 15:58:00,
2013-03-17 11:03:00,18.9,-5.5,30.14,NNE,18,3.6,4.0,33,0.05,,CLR,0.05,VWS V14.01,2013-03-17 16:03:00,
2013-03-17 11:09:00,19.0,-5.3,30.14,NNE,33,3.1,5.8,33,0.05,,CLR,0.05,VWS V14.01,2013-03-17 16:09:00,
2013-03-17 11:14:00,19.4,-5.0,30.14,NE,52,4.5,7.6,33,0.05,,CLR,0.05,VWS V14.01,2013-03-17 16:14:00,
2013-03-17 11:20:00,19.6,-5.5,30.14,NNE,14,6.3,8.3,32,0.05,,CLR,0.05,VWS V14.01,2013-03-17 16:20:00,
2013-03-17 11:25:00,19.6,-5.5,30.14,NE,34,7.6,8.1,32,0.05,,CLR,0.05,VWS V14.01,2013-03-17 16:25:00,
2013-03-17 11:31:00,19.4,-5.0,30.14,North,8,3.1,5.4,33,0.05,,CLR,0.05,VWS V14.01,2013-03-17 16:31:00,
2013-03-17 11:36:00,19.4,-5.0,30.14,NE,39,5.4,5.8,33,0.05,,CLR,0.05,VWS V14.01,2013-03-17 16:36:00,
2013-03-17 11:41:00,19.4,-5.0,30.14,NNE,14,7.6,7.6,33,0.05,,CLR,0.05,VWS V14.01,2013-03-17 16:41:00,
2013-03-17 11:46:00,19.8,-5.3,30.11,NNE,22,3.6,5.8,32,0.05,,CLR,0.05,VWS V14.01,2013-03-17 16:46:00,
2013-03-17 11:52:00,20.3,-4.8,30.11,NE,49,3.6,7.6,32,0.00,,CLR,0.05,VWS V14.01,2013-03-17 16:52:00,
2013-03-17 11:58:00,20.8,-4.4,30.11,North,3,3.1,3.6,32,0.00,,CLR,0.05,VWS V14.01,2013-03-17 16:58:00,
2013-03-17 12:03:00,21.6,-3.7,30.11,NNE,29,3.1,5.4,32,0.00,,CLR,0.05,VWS V14.01,2013-03-17 17:03:00,
2013-03-17 12:08:00,22.3,-3.1,30.11,North,10,4.9,5.8,32,0.00,,CLR,0.05,VWS V14.01,2013-03-17 17:08:00,
2013-03-17 12:13:00,22.5,-2.9,30.08,NE,49,4.0,4.0,32,0.00,,CLR,0.05,VWS V14.01,2013-03-17 17:13:00,
2013-03-17 12:19:00,23.0,-2.5,30.08,NNE,31,5.4,5.8,32,0.00,,CLR,0.05,VWS V14.01,2013-03-17 17:19:00,
2013-03-17 12:24:00,23.2,-2.3,30.08,NNE,19,6.3,6.3,32,0.00,,CLR,0.05,VWS V14.01,2013-03-17 17:24:00,
2013-03-17 12:30:00,23.4,-2.1,30.08,North,2,3.1,5.4,32,0.00,,CLR,0.05,VWS V14.01,2013-03-17 17:30:00,
2013-03-17 12:36:00,23.5,-2.0,30.08,NNE,26,5.8,5.8,32,0.00,,CLR,0.05,VWS V14.01,2013-03-17 17:36:00,
2013-03-17 12:41:00,24.1,-1.5,30.08,NNE,32,2.7,3.6,32,0.00,,CLR,0.05,VWS V14.01,2013-03-17 17:41:00,
2013-03-17 12:47:00,24.4,-1.2,30.05,NE,34,4.0,5.8,32,0.00,,CLR,0.05,VWS V14.01,2013-03-17 17:47:00,
2013-03-17 12:52:00,24.4,-1.2,30.05,East,97,2.7,6.3,32,0.00,,CLR,0.05,VWS V14.01,2013-03-17 17:52:00,
2013-03-17 12:58:00,25.0,-1.4,30.08,NE,48,3.1,4.0,31,0.00,,CLR,0.05,VWS V14.01,2013-03-17 17:58:00,
2013-03-17 13:03:00,25.3,-1.1,30.08,NE,52,2.2,3.1,31,0.00,,CLR,0.05,VWS V14.01,2013-03-17 18:03:00,
2013-03-17 13:09:00,26.2,-0.3,30.08,ENE,59,2.7,4.0,31,0.00,,CLR,0.05,VWS V14.01,2013-03-17 18:09:00,
2013-03-17 13:14:00,26.6,0.1,30.05,NE,47,3.6,4.0,31,0.00,,CLR,0.05,VWS V14.01,2013-03-17 18:14:00,
2013-03-17 13:20:00,26.8,0.2,30.05,ENE,72,2.7,3.6,31,0.00,,CLR,0.05,VWS V14.01,2013-03-17 18:20:00,
2013-03-17 13:26:00,27.1,0.5,30.05,NNE,25,4.0,6.7,31,0.00,,CLR,0.05,VWS V14.01,2013-03-17 18:26:00,
2013-03-17 13:31:00,27.3,0.7,30.05,NE,51,0.0,6.3,31,0.00,,CLR,0.05,VWS V14.01,2013-03-17 18:31:00,
2013-03-17 13:37:00,27.7,1.0,30.05,NE,44,3.1,4.0,31,0.00,,CLR,0.05,VWS V14.01,2013-03-17 18:37:00,
2013-03-17 13:42:00,28.2,1.5,30.05,NE,46,0.0,5.4,31,0.00,,CLR,0.05,VWS V14.01,2013-03-17 18:42:00,
2013-03-17 13:48:00,28.6,1.8,30.05,NNE,33,5.8,5.8,31,0.00,,CLR,0.05,VWS V14.01,2013-03-17 18:48:00,
2013-03-17 13:54:00,28.8,1.2,30.05,ENE,74,0.0,5.8,30,0.00,,CLR,0.05,VWS V14.01,2013-03-17 18:54:00,
2013-03-17 13:59:00,28.9,1.4,30.02,NNE,16,3.6,4.5,30,0.00,,CLR,0.05,VWS V14.01,2013-03-17 18:59:00,
2013-03-17 14:05:00,28.8,2.0,30.02,ENE,68,3.1,4.9,31,0.00,,CLR,0.05,VWS V14.01,2013-03-17 19:05:00,
2013-03-17 14:11:00,29.3,2.4,30.02,NNE,32,4.0,5.4,31,0.00,,CLR,0.05,VWS V14.01,2013-03-17 19:11:00,
2013-03-17 14:16:00,29.5,2.6,30.02,North,8,3.6,5.4,31,0.00,,CLR,0.05,VWS V14.01,2013-03-17 19:16:00,
2013-03-17 14:21:00,29.8,2.9,30.02,NE,48,0.0,4.0,31,0.00,,CLR,0.05,VWS V14.01,2013-03-17 19:21:00,
2013-03-17 14:27:00,30.2,3.2,30.02,North,11,3.1,5.8,31,0.00,,CLR,0.05,VWS V14.01,2013-03-17 19:27:00,
2013-03-17 14:32:00,30.2,3.2,30.02,East,79,0.0,3.1,31,0.00,,CLR,0.05,VWS V14.01,2013-03-17 19:32:00,
2013-03-17 14:37:00,30.7,3.0,30.02,NNE,12,3.1,4.0,30,0.00,,CLR,0.05,VWS V14.01,2013-03-17 19:37:00,
2013-03-17 14:43:00,30.7,3.0,30.02,ENE,57,2.7,4.9,30,0.00,,CLR,0.05,VWS V14.01,2013-03-17 19:43:00,
2013-03-17 14:48:00,31.1,3.3,30.02,ENE,70,2.2,4.9,30,0.00,,CLR,0.05,VWS V14.01,2013-03-17 19:48:00,
2013-03-17 14:53:00,31.6,3.8,30.02,ENE,77,4.0,4.0,30,0.00,,CLR,0.05,VWS V14.01,2013-03-17 19:53:00,
2013-03-17 14:58:00,32.2,4.2,29.99,NE,49,2.2,4.5,30,0.00,,CLR,0.05,VWS V14.01,2013-03-17 19:58:00,
2013-03-17 15:04:00,32.5,4.6,29.99,NNE,23,3.6,4.0,30,0.00,,CLR,0.05,VWS V14.01,2013-03-17 20:04:00,
2013-03-17 15:09:00,32.5,4.6,29.99,ENE,74,2.7,5.8,30,0.00,,CLR,0.05,VWS V14.01,2013-03-17 20:09:00,
2013-03-17 15:15:00,32.7,4.7,29.99,ESE,111,3.1,6.3,30,0.00,,CLR,0.05,VWS V14.01,2013-03-17 20:15:00,
2013-03-17 15:20:00,32.9,4.9,29.99,East,93,4.0,8.3,30,0.00,,CLR,0.05,VWS V14.01,2013-03-17 20:20:00,
2013-03-17 15:26:00,33.3,5.2,29.99,East,88,8.1,8.7,30,0.00,,CLR,0.05,VWS V14.01,2013-03-17 20:26:00,
2013-03-17 15:31:00,33.3,5.2,29.99,ENE,76,4.0,6.3,30,0.00,,CLR,0.05,VWS V14.01,2013-03-17 20:31:00,
2013-03-17 15:36:00,33.6,5.5,29.99,ESE,107,8.1,10.5,30,0.00,,CLR,0.05,VWS V14.01,2013-03-17 20:36:00,
2013-03-17 15:42:00,34.2,6.0,29.99,East,97,3.1,7.6,30,0.00,,CLR,0.05,VWS V14.01,2013-03-17 20:42:00,
2013-03-17 15:47:00,34.5,6.3,29.99,East,97,5.8,7.6,30,0.00,,CLR,0.05,VWS V14.01,2013-03-17 20:47:00,
2013-03-17 15:53:00,34.5,6.3,29.99,East,96,10.1,10.1,30,0.00,,CLR,0.05,VWS V14.01,2013-03-17 20:53:00,
2013-03-17 15:58:00,34.3,6.1,29.99,ESE,116,4.9,7.2,30,0.00,,CLR,0.05,VWS V14.01,2013-03-17 20:58:00,
2013-03-17 16:04:00,34.3,6.1,29.99,East,95,4.0,6.3,30,0.00,,CLR,0.05,VWS V14.01,2013-03-17 21:04:00,
2013-03-17 16:10:00,34.7,6.4,29.99,ESE,110,5.8,6.3,30,0.00,,CLR,0.05,VWS V14.01,2013-03-17 21:10:00,
2013-03-17 16:16:00,35.1,6.8,29.99,East,79,5.8,6.3,30,0.00,,CLR,0.05,VWS V14.01,2013-03-17 21:16:00,
2013-03-17 16:21:00,35.6,6.5,29.99,East,100,3.1,6.3,29,0.00,,CLR,0.05,VWS V14.01,2013-03-17 21:21:00,
2013-03-17 16:26:00,35.8,5.1,29.99,East,91,0.0,5.4,27,0.00,,CLR,0.05,VWS V14.01,2013-03-17 21:26:00,
2013-03-17 16:32:00,36.0,5.2,29.99,East,80,6.3,6.7,27,0.00,,CLR,0.05,VWS V14.01,2013-03-17 21:32:00,
2013-03-17 16:38:00,36.1,5.4,29.99,ESE,112,10.1,10.1,27,0.00,,CLR,0.05,VWS V14.01,2013-03-17 21:38:00,
2013-03-17 16:43:00,35.8,5.1,29.99,East,85,8.1,8.1,27,0.00,,CLR,0.05,VWS V14.01,2013-03-17 21:43:00,
2013-03-17 16:49:00,35.8,5.1,29.99,ENE,75,5.8,8.3,27,0.00,,CLR,0.05,VWS V14.01,2013-03-17 21:49:00,
2013-03-17 16:55:00,35.2,4.6,29.99,East,93,8.3,8.3,27,0.00,,CLR,0.05,VWS V14.01,2013-03-17 21:55:00,
2013-03-17 17:00:00,35.1,4.5,29.96,East,89,6.3,8.1,27,0.00,,CLR,0.05,VWS V14.01,2013-03-17 22:00:00,
2013-03-17 17:05:00,35.1,4.5,29.96,ESE,105,5.8,7.6,27,0.00,,CLR,0.05,VWS V14.01,2013-03-17 22:05:00,
2013-03-17 17:10:00,34.9,4.3,29.96,East,101,6.3,9.2,27,0.00,,CLR,0.05,VWS V14.01,2013-03-17 22:10:00,
2013-03-17 17:16:00,34.9,4.3,29.96,ESE,104,8.1,8.1,27,0.00,,CLR,0.05,VWS V14.01,2013-03-17 22:16:00,
2013-03-17 17:22:00,35.1,4.5,29.96,East,99,5.4,6.7,27,0.00,,CLR,0.05,VWS V14.01,2013-03-17 22:22:00,
2013-03-17 17:28:00,35.2,4.6,29.96,East,98,4.9,8.3,27,0.00,,CLR,0.05,VWS V14.01,2013-03-17 22:28:00,
2013-03-17 17:34:00,34.9,4.3,29.96,ESE,118,8.7,11.4,27,0.00,,CLR,0.05,VWS V14.01,2013-03-17 22:34:00,
2013-03-17 17:39:00,34.3,3.8,29.96,East,101,5.4,6.7,27,0.00,,CLR,0.05,VWS V14.01,2013-03-17 22:39:00,
2013-03-17 17:44:00,34.3,3.8,29.96,SE,143,7.6,7.6,27,0.00,,CLR,0.05,VWS V14.01,2013-03-17 22:44:00,
2013-03-17 17:49:00,33.8,3.4,29.96,ESE,118,8.1,8.1,27,0.00,,CLR,0.05,VWS V14.01,2013-03-17 22:49:00,
2013-03-17 17:54:00,33.3,3.7,29.96,ESE,103,3.1,8.7,28,0.00,,CLR,0.05,VWS V14.01,2013-03-17 22:54:00,
2013-03-17 17:59:00,32.7,3.2,29.96,East,90,5.4,8.3,28,0.00,,CLR,0.05,VWS V14.01,2013-03-17 22:59:00,
2013-03-17 18:05:00,32.0,2.6,29.96,East,83,7.6,7.6,28,0.00,,FEW031,0.05,VWS V14.01,2013-03-17 23:05:00,
2013-03-17 18:10:00,30.9,1.7,29.96,East,101,6.3,8.1,28,0.00,,FEW031,0.05,VWS V14.01,2013-03-17 23:10:00,
2013-03-17 18:16:00,30.0,0.9,29.96,East,92,4.0,6.3,28,0.00,,FEW031,0.05,VWS V14.01,2013-03-17 23:16:00,
2013-03-17 18:22:00,29.5,0.4,29.96,East,101,4.0,8.3,28,0.00,,FEW031,0.05,VWS V14.01,2013-03-17 23:22:00,
2013-03-17 18:27:00,28.8,-0.2,29.96,East,99,4.9,8.7,28,0.00,,FEW031,0.05,VWS V14.01,2013-03-17 23:27:00,
2013-03-17 18:32:00,28.2,-0.7,29.96,ESE,110,5.8,8.1,28,0.00,,FEW031,0.05,VWS V14.01,2013-03-17 23:32:00,
2013-03-17 18:38:00,27.5,-1.3,29.96,ESE,106,6.3,8.3,28,0.00,,FEW031,0.05,VWS V14.01,2013-03-17 23:38:00,
2013-03-17 18:44:00,26.8,-1.9,29.93,SE,139,6.3,8.1,28,0.00,,FEW031,0.05,VWS V14.01,2013-03-17 23:44:00,
2013-03-17 18:49:00,26.1,-1.8,29.93,East,94,8.7,8.7,29,0.00,,FEW031,0.05,VWS V14.01,2013-03-17 23:49:00,
2013-03-17 18:55:00,25.5,-0.9,29.93,ESE,122,5.8,11.4,31,0.00,,FEW031,0.05,VWS V14.01,2013-03-17 23:55:00,
2013-03-17 19:00:00,25.0,-1.4,29.96,East,99,5.4,6.3,31,0.00,,FEW031,0.05,VWS V14.01,2013-03-18 00:00:00,
2013-03-17 19:05:00,24.4,-1.2,29.96,ESE,113,4.0,8.3,32,0.00,,CLR,0.05,VWS V14.01,2013-03-18 00:05:00,
2013-03-17 19:10:00,24.1,-1.5,29.96,ESE,120,6.3,8.7,32,0.00,,CLR,0.05,VWS V14.01,2013-03-18 00:10:00,
2013-03-17 19:15:00,23.5,-2.0,29.93,East,83,4.0,7.6,32,0.00,,CLR,0.05,VWS V14.01,2013-03-18 00:15:00,
2013-03-17 19:20:00,23.2,-2.3,29.93,SE,124,8.3,8.3,32,0.00,,CLR,0.05,VWS V14.01,2013-03-18 00:20:00,
2013-03-17 19:25:00,22.8,-2.6,29.93,East,91,5.4,7.6,32,0.00,,CLR,0.05,VWS V14.01,2013-03-18 00:25:00,
2013-03-17 19:30:00,22.6,-2.8,29.93,East,101,6.3,6.3,32,0.00,,CLR,0.05,VWS V14.01,2013-03-18 00:30:00,
2013-03-17 19:36:00,22.3,-3.1,29.93,East,96,3.6,6.3,32,0.00,,CLR,0.05,VWS V14.01,2013-03-18 00:36:00,
2013-03-17 19:41:00,22.1,-2.6,29.93,East,101,3.1,4.5,33,0.00,,CLR,0.05,VWS V14.01,2013-03-18 00:41:00,
2013-03-17 19:47:00,21.9,-2.8,29.93,ESE,104,4.0,5.4,33,0.00,,CLR,0.05,VWS V14.01,2013-03-18 00:47:00,
2013-03-17 19:52:00,21.7,-2.9,29.93,ESE,117,5.4,6.3,33,0.00,,CLR,0.05,VWS V14.01,2013-03-18 00:52:00,
2013-03-17 19:57:00,21.6,-3.1,29.93,ESE,103,2.7,6.3,33,0.00,,CLR,0.05,VWS V14.01,2013-03-18 00:57:00,
2013-03-17 20:02:00,21.4,-3.2,29.93,East,97,2.7,4.5,33,0.00,,CLR,0.05,VWS V14.01,2013-03-18 01:02:00,
2013-03-17 20:07:00,21.2,-2.8,29.93,ESE,105,3.1,5.4,34,0.00,,CLR,0.05,VWS V14.01,2013-03-18 01:07:00,
2013-03-17 20:12:00,21.2,-2.8,29.93,ESE,108,5.4,6.3,34,0.00,,CLR,0.05,VWS V14.01,2013-03-18 01:12:00,
2013-03-17 20:18:00,21.0,-2.9,29.93,ESE,105,4.0,4.9,34,0.00,,CLR,0.05,VWS V14.01,2013-03-18 01:18:00,
2013-03-17 20:23:00,20.8,-3.1,29.93,ESE,106,4.9,6.3,34,0.00,,CLR,0.05,VWS V14.01,2013-03-18 01:23:00,
2013-03-17 20:28:00,20.8,-3.1,29.93,East,97,0.0,3.1,34,0.00,,CLR,0.05,VWS V14.01,2013-03-18 01:28:00,
2013-03-17 20:33:00,20.7,-3.3,29.93,ESE,104,0.0,3.1,34,0.00,,CLR,0.05,VWS V14.01,2013-03-18 01:33:00,
2013-03-17 20:38:00,20.5,-3.4,29.93,East,101,3.6,3.6,34,0.00,,CLR,0.05,VWS V14.01,2013-03-18 01:38:00,
2013-03-17 20:44:00,20.3,-3.6,29.93,East,92,2.7,2.7,34,0.00,,CLR,0.05,VWS V14.01,2013-03-18 01:44:00,
2013-03-17 20:49:00,20.3,-3.6,29.93,East,92,0.0,0.0,34,0.00,,CLR,0.05,VWS V14.01,2013-03-18 01:49:00,
2013-03-17 20:55:00,20.1,-3.1,29.93,ENE,64,0.0,0.0,35,0.00,,CLR,0.05,VWS V14.01,2013-03-18 01:55:00,
2013-03-17 21:01:00,19.9,-3.3,29.93,East,93,0.0,0.0,35,0.00,,CLR,0.05,VWS V14.01,2013-03-18 02:01:00,
2013-03-17 21:06:00,19.8,-3.5,29.93,East,92,0.0,0.0,35,0.00,,CLR,0.05,VWS V14.01,2013-03-18 02:06:00,
2013-03-17 21:11:00,19.6,-3.6,29.93,East,91,0.0,0.0,35,0.00,,CLR,0.05,VWS V14.01,2013-03-18 02:11:00,
2013-03-17 21:17:00,19.4,-3.2,29.93,East,89,0.0,0.0,36,0.00,,CLR,0.05,VWS V14.01,2013-03-18 02:17:00,
2013-03-17 21:22:00,19.2,-3.3,29.93,East,96,2.7,2.7,36,0.00,,CLR,0.05,VWS V14.01,2013-03-18 02:22:00,
2013-03-17 21:28:00,19.0,-3.5,29.93,ENE,63,0.0,3.6,36,0.00,,CLR,0.05,VWS V14.01,2013-03-18 02:28:00,
2013-03-17 21:33:00,18.7,-3.8,29.93,East,88,3.6,3.6,36,0.00,,CLR,0.05,VWS V14.01,2013-03-18 02:33:00,
2013-03-17 21:38:00,18.7,-3.8,29.93,East,80,4.9,4.9,36,0.00,,CLR,0.05,VWS V14.01,2013-03-18 02:38:00,
2013-03-17 21:43:00,18.7,-3.3,29.91,East,85,2.2,4.0,37,0.00,,CLR,0.05,VWS V14.01,2013-03-18 02:43:00,
2013-03-17 21:49:00,18.7,-3.3,29.91,ENE,69,0.0,0.0,37,0.00,,CLR,0.05,VWS V14.01,2013-03-18 02:49:00,
2013-03-17 21:54:00,18.7,-2.7,29.91,ENE,72,2.7,4.0,38,0.00,,CLR,0.05,VWS V14.01,2013-03-18 02:54:00,
2013-03-17 22:00:00,18.5,-2.9,29.91,ENE,64,0.0,0.0,38,0.00,,CLR,0.05,VWS V14.01,2013-03-18 03:00:00,
2013-03-17 22:05:00,18.5,-2.9,29.91,ENE,77,0.0,0.0,38,0.00,,CLR,0.05,VWS V14.01,2013-03-18 03:05:00,
2013-03-17 22:11:00,18.3,-2.5,29.91,ENE,74,0.0,0.0,39,0.00,,CLR,0.05,VWS V14.01,2013-03-18 03:11:00,
2013-03-17 22:17:00,18.1,-2.6,29.91,ENE,74,0.0,0.0,39,0.00,,CLR,0.05,VWS V14.01,2013-03-18 03:17:00,
2013-03-17 22:22:00,17.8,-3.0,29.91,ENE,74,0.0,0.0,39,0.00,,CLR,0.05,VWS V14.01,2013-03-18 03:22:00,
2013-03-17 22:27:00,17.6,-3.1,29.91,ENE,74,0.0,0.0,39,0.00,,CLR,0.05,VWS V14.01,2013-03-18 03:27:00,
2013-03-17 22:32:00,17.4,-3.3,29.91,ENE,74,0.0,0.0,39,0.00,,CLR,0.05,VWS V14.01,2013-03-18 03:32:00,
2013-03-17 22:37:00,17.1,-3.6,29.91,ENE,74,0.0,0.0,39,0.00,,CLR,0.05,VWS V14.01,2013-03-18 03:37:00,
2013-03-17 22:43:00,16.9,-3.8,29.91,ENE,74,0.0,0.0,39,0.00,,CLR,0.05,VWS V14.01,2013-03-18 03:43:00,
2013-03-17 22:49:00,16.7,-3.4,29.91,ENE,74,0.0,0.0,40,0.00,,CLR,0.05,VWS V14.01,2013-03-18 03:49:00,
2013-03-17 22:55:00,16.5,-3.6,29.91,ENE,74,0.0,0.0,40,0.00,,CLR,0.05,VWS V14.01,2013-03-18 03:55:00,
2013-03-17 23:00:00,16.5,-3.6,29.88,ENE,74,0.0,0.0,40,0.00,,CLR,0.05,VWS V14.01,2013-03-18 04:00:00,
2013-03-17 23:02:00,16.5,-3.6,29.88,ENE,74,0.0,0.0,40,0.00,,CLR,0.05,VWS V14.01,2013-03-18 04:02:00,
2013-03-17 23:04:00,16.5,-3.6,29.88,ENE,74,0.0,0.0,40,0.00,,CLR,0.05,VWS V14.01,2013-03-18 04:04:00,
2013-03-17 23:09:00,16.5,-3.1,29.88,ENE,77,0.0,0.0,41,0.00,,CLR,0.05,VWS V14.01,2013-03-18 04:09:00,
2013-03-17 23:14:00,16.7,-2.9,29.88,East,81,0.0,0.0,41,0.00,,CLR,0.05,VWS V14.01,2013-03-18 04:14:00,
2013-03-17 23:19:00,16.7,-2.4,29.88,ENE,72,0.0,0.0,42,0.00,,CLR,0.05,VWS V14.01,2013-03-18 04:19:00,
2013-03-17 23:25:00,16.7,-1.9,29.88,ENE,59,3.1,4.0,43,0.00,,CLR,0.05,VWS V14.01,2013-03-18 04:25:00,
2013-03-17 23:29:00,16.7,-1.9,29.88,East,81,3.1,3.6,43,0.00,,CLR,0.05,VWS V14.01,2013-03-18 04:29:00,
2013-03-17 23:35:00,16.7,-1.9,29.88,East,83,3.1,4.0,43,0.00,,CLR,0.05,VWS V14.01,2013-03-18 04:35:00,
2013-03-17 23:41:00,16.9,-1.7,29.88,ESE,103,2.7,3.1,43,0.00,,CLR,0.05,VWS V14.01,2013-03-18 04:41:00,
2013-03-17 23:46:00,16.9,-1.2,29.85,ESE,105,5.8,5.8,44,0.00,,CLR,0.05,VWS V14.01,2013-03-18 04:46:00,
2013-03-17 23:52:00,17.1,-1.1,29.85,East,100,2.7,5.4,44,0.00,,CLR,0.05,VWS V14.01,2013-03-18 04:52:00,
2013-03-17 23:57:00,17.1,-1.1,29.85,East,87,0.0,0.0,44,0.00,,CLR,0.05,VWS V14.01,2013-03-18 04:57:00,